| time (UTC) | temp F | wind direction | speed MPH | gust MPH | rain 1hr in | rain 24hr in | rain mn in | humidity % | barometer mb |
| 20260507100024 | 30 | 335 | 0.0 | 0.0 | 0.00 | 0.00 | 0.00 | 91 | 1015.8 |
| 20260507094524 | 30 | 335 | 0.0 | 0.0 | 0.00 | 0.00 | 0.00 | 91 | 1016.0 |
| 20260507093018 | 30 | 335 | 0.0 | 0.0 | 0.00 | 0.00 | 0.00 | 90 | 1015.9 |
| 20260507091524 | 31 | 0.0 | 0.0 | 0.00 | 0.00 | 0.00 | 90 | 1016.0 | |
| 20260507090014 | 31 | 335 | 0.0 | 0.0 | 0.00 | 0.00 | 0.00 | 90 | 1016.1 |
| 20260507084513 | 31 | 335 | 0.0 | 0.0 | 0.00 | 0.00 | 0.00 | 89 | 1016.1 |
| 20260507083004 | 31 | 335 | 0.0 | 0.0 | 0.00 | 0.00 | 0.00 | 89 | 1016.0 |
| 20260507081530 | 31 | 335 | 0.0 | 0.0 | 0.00 | 0.00 | 0.00 | 89 | 1015.9 |
| 20260507080022 | 32 | 335 | 0.0 | 0.0 | 0.00 | 0.00 | 0.00 | 89 | 1015.9 |
| 20260507073013 | 32 | 335 | 0.0 | 0.0 | 0.00 | 0.00 | 0.00 | 88 | 1016.1 |
| 20260507071510 | 32 | 335 | 0.0 | 0.0 | 0.00 | 0.00 | 0.00 | 88 | 1016.2 |
| 20260507064525 | 33 | 335 | 0.0 | 0.0 | 0.00 | 0.00 | 0.00 | 87 | 1016.5 |
| 20260507063024 | 33 | 335 | 0.0 | 0.0 | 0.00 | 0.00 | 0.00 | 86 | 1016.5 |
| 20260507061519 | 33 | 335 | 0.0 | 0.0 | 0.00 | 0.00 | 0.00 | 86 | 1016.6 |
| 20260507060016 | 34 | 335 | 0.0 | 0.0 | 0.00 | 0.00 | 0.00 | 85 | 1016.5 |
| 20260507053012 | 34 | 335 | 0.0 | 0.0 | 0.00 | 0.00 | 0.00 | 84 | 1016.3 |
| 20260507051524 | 35 | 335 | 0.0 | 0.0 | 0.00 | 0.00 | 0.00 | 83 | 1016.5 |
| 20260507050034 | 35 | 335 | 0.0 | 0.0 | 0.00 | 0.00 | 0.00 | 82 | 1016.5 |
| 20260507044520 | 36 | 335 | 0.0 | 0.0 | 0.00 | 0.00 | 0.00 | 82 | 1016.6 |
| 20260507043017 | 36 | 335 | 0.0 | 0.0 | 0.00 | 0.00 | 0.00 | 81 | 1016.5 |
| 20260507041532 | 37 | 335 | 0.0 | 0.0 | 0.00 | 0.00 | 0.00 | 79 | 1016.5 |
| 20260507040011 | 37 | 335 | 0.0 | 0.0 | 0.00 | 0.00 | 0.00 | 78 | 1016.5 |
| 20260507034525 | 38 | 335 | 0.0 | 0.0 | 0.00 | 0.00 | 0.00 | 77 | 1016.4 |
| 20260507033022 | 38 | 335 | 0.0 | 0.0 | 0.00 | 0.00 | 0.00 | 76 | 1016.5 |
| 20260507031520 | 39 | 335 | 0.0 | 0.0 | 0.00 | 0.00 | 0.00 | 74 | 1016.5 |
| 20260507024520 | 42 | 335 | 0.0 | 0.0 | 0.00 | 0.00 | 0.00 | 67 | 1016.2 |
| 20260507023010 | 43 | 335 | 0.0 | 0.0 | 0.00 | 0.00 | 0.00 | 65 | 1016.2 |
| 20260507021526 | 44 | 335 | 0.0 | 0.0 | 0.00 | 0.00 | 0.00 | 62 | 1015.9 |
| 20260507020028 | 46 | 335 | 0.0 | 1.0 | 0.00 | 0.00 | 0.00 | 51 | 1015.6 |
| 20260507014545 | 47 | 335 | 0.0 | 4.0 | 0.00 | 0.00 | 0.00 | 47 | 1015.5 |
| 20260507013038 | 47 | 314 | 3.0 | 6.0 | 0.00 | 0.00 | 0.00 | 45 | 1015.4 |
| 20260507011531 | 48 | 313 | 2.0 | 6.0 | 0.00 | 0.00 | 0.00 | 45 | 1015.4 |
| 20260507010032 | 48 | 327 | 2.0 | 5.0 | 0.00 | 0.00 | 0.00 | 45 | 1015.4 |
| 20260507004525 | 49 | 314 | 2.0 | 12.0 | 0.00 | 0.00 | 0.00 | 43 | 1015.4 |
| 20260507000029 | 51 | 301 | 3.0 | 11.0 | 0.00 | 0.00 | 0.00 | 41 | 1015.0 |
| 20260506234527 | 52 | 304 | 4.0 | 12.0 | 0.00 | 0.00 | 0.00 | 41 | 1014.8 |
| 20260506233029 | 52 | 304 | 5.0 | 13.0 | 0.00 | 0.00 | 0.00 | 41 | 1014.6 |
| 20260506231528 | 53 | 313 | 5.0 | 15.0 | 0.00 | 0.00 | 0.00 | 40 | 1014.6 |
| 20260506224525 | 54 | 204 | 3.0 | 10.0 | 0.00 | 0.00 | 0.00 | 39 | 1014.3 |
| 20260506223026 | 53 | 325 | 2.0 | 11.0 | 0.00 | 0.00 | 0.00 | 39 | 1014.3 |
| 20260506221523 | 54 | 234 | 6.0 | 20.0 | 0.00 | 0.00 | 0.00 | 39 | 1014.2 |
| 20260506220029 | 55 | 283 | 2.0 | 10.0 | 0.00 | 0.00 | 0.00 | 39 | 1014.1 |
| 20260506214528 | 55 | 202 | 3.0 | 12.0 | 0.00 | 0.00 | 0.00 | 38 | 1013.9 |
| 20260506213027 | 56 | 327 | 4.0 | 16.0 | 0.00 | 0.00 | 0.00 | 40 | 1013.9 |
| 20260506211509 | 56 | 315 | 1.0 | 12.0 | 0.00 | 0.00 | 0.00 | 42 | 1013.8 |
| 20260506210008 | 56 | 315 | 3.0 | 15.0 | 0.00 | 0.00 | 0.00 | 37 | 1013.8 |
| 20260506204525 | 55 | 320 | 2.0 | 10.0 | 0.00 | 0.00 | 0.00 | 42 | 1013.8 |
| 20260506203023 | 57 | 317 | 4.0 | 10.0 | 0.00 | 0.00 | 0.00 | 34 | 1013.8 |
| 20260506201520 | 57 | 300 | 5.0 | 12.0 | 0.00 | 0.00 | 0.00 | 35 | 1013.9 |
| 20260506200015 | 57 | 170 | 4.0 | 14.0 | 0.00 | 0.00 | 0.00 | 34 | 1014.2 |
| 20260506193024 | 57 | 349 | 3.0 | 11.0 | 0.00 | 0.00 | 0.00 | 35 | 1014.2 |
| 20260506191524 | 56 | 252 | 3.0 | 10.0 | 0.00 | 0.00 | 0.00 | 36 | 1014.3 |
| 20260506190024 | 56 | 286 | 2.0 | 12.0 | 0.00 | 0.00 | 0.00 | 38 | 1014.2 |
| 20260506184520 | 55 | 216 | 4.0 | 11.0 | 0.00 | 0.00 | 0.00 | 39 | 1014.4 |
| 20260506183018 | 54 | 205 | 2.0 | 9.0 | 0.00 | 0.00 | 0.00 | 38 | 1014.3 |
| 20260506181519 | 54 | 227 | 1.0 | 8.0 | 0.00 | 0.00 | 0.00 | 39 | 1014.3 |
| 20260506180034 | 54 | 279 | 2.0 | 9.0 | 0.00 | 0.00 | 0.00 | 42 | 1014.4 |
| 20260506174526 | 53 | 193 | 4.0 | 10.0 | 0.00 | 0.00 | 0.00 | 39 | 1014.4 |
| 20260506173024 | 54 | 318 | 6.0 | 12.0 | 0.00 | 0.00 | 0.00 | 38 | 1014.7 |
| 20260506171536 | 54 | 244 | 2.0 | 11.0 | 0.00 | 0.00 | 0.00 | 39 | 1014.6 |
| 20260506170020 | 54 | 302 | 4.0 | 10.0 | 0.00 | 0.00 | 0.00 | 39 | 1014.7 |
| 20260506164516 | 53 | 324 | 2.0 | 6.0 | 0.00 | 0.00 | 0.00 | 41 | 1014.7 |
| 20260506163028 | 53 | 290 | 3.0 | 10.0 | 0.00 | 0.00 | 0.00 | 41 | 1014.7 |
| 20260506161536 | 54 | 5 | 3.0 | 10.0 | 0.00 | 0.00 | 0.00 | 40 | 1014.5 |
| 20260506160025 | 54 | 259 | 2.0 | 9.0 | 0.00 | 0.00 | 0.00 | 41 | 1014.5 |
| 20260506153023 | 52 | 321 | 4.0 | 8.0 | 0.00 | 0.00 | 0.00 | 40 | 1014.7 |
| 20260506151520 | 52 | 277 | 2.0 | 6.0 | 0.00 | 0.00 | 0.00 | 41 | 1014.9 |
| 20260506150033 | 52 | 307 | 2.0 | 9.0 | 0.00 | 0.00 | 0.00 | 41 | 1014.9 |
| 20260506144527 | 52 | 294 | 2.0 | 6.0 | 0.00 | 0.00 | 0.00 | 42 | 1014.8 |
| 20260506140022 | 50 | 321 | 1.0 | 4.0 | 0.00 | 0.00 | 0.00 | 52 | 1014.7 |
| 20260506133026 | 47 | 240 | 0.0 | 3.0 | 0.00 | 0.00 | 0.00 | 63 | 1014.2 |
| 20260506131528 | 46 | 269 | 0.0 | 2.0 | 0.00 | 0.00 | 0.00 | 71 | 1014.0 |
| 20260506130026 | 44 | 269 | 0.0 | 0.0 | 0.00 | 0.01 | 0.00 | 77 | 1014.0 |
| 20260506124525 | 42 | 269 | 0.0 | 0.0 | 0.00 | 0.04 | 0.00 | 84 | 1013.9 |
| 20260506123025 | 41 | 269 | 0.0 | 0.0 | 0.00 | 0.06 | 0.00 | 89 | 1013.6 |
| 20260506121507 | 39 | 269 | 0.0 | 0.0 | 0.00 | 0.08 | 0.00 | 91 | 1013.4 |
| 20260506120021 | 38 | 269 | 0.0 | 0.0 | 0.00 | 0.10 | 0.00 | 91 | 1013.4 |
| 20260506114524 | 37 | 269 | 0.0 | 0.0 | 0.00 | 0.12 | 0.00 | 91 | 1013.3 |
| 20260506111509 | 36 | 269 | 0.0 | 0.0 | 0.00 | 0.12 | 0.00 | 88 | 1013.0 |
| 20260506110012 | 36 | 269 | 0.0 | 0.0 | 0.00 | 0.12 | 0.00 | 87 | 1013.1 |
| 20260506104506 | 36 | 269 | 0.0 | 0.0 | 0.00 | 0.12 | 0.00 | 87 | 1012.9 |
| 20260506103017 | 37 | 269 | 0.0 | 0.0 | 0.00 | 0.12 | 0.00 | 86 | 1012.5 |